カタログに戻る

FLOCK 4G 7

運用中科学SSO
NORAD 62624·PAYLOAD·🇺🇸 United States

打ち上げ Jan 14, 2025 から Vandenberg Space Force Base

Loading…

次のパス (今後24時間)

TLE

最新Source: CelesTrak SupGP

元期: Sep 14, 2026, 14:44 UTC

1 62624C 25009R   26257.61417824  .00008855  00000+0  29786-3 0  2578
2 62624  97.3890 338.4970 0002635  35.8129 100.8298 15.30850766    16

AllMySatでFLOCK 4G 7をリアルタイム追跡

Download on the App Store